Regional Weather Roundup
Issued by NWS New Orleans/Baton Rouge, LA

Home | Current Version | Previous Version | Graphics & Text | Print | Product List | Glossary On
Versions: 1 2 3 4 5 6 7 8 9 10 11 12 13 14 15 16 17 18 19 20 21 22 23 24 25 26 27 28 29 30 31 32 33 34 35 36 37 38 39 40 41 42 43 44 45 46 47 48 49 50
148
ASUS44 KLIX 302305
RWRLIX
NEW ORLEANS REGIONAL WEATHER ROUNDUP
NATIONAL WEATHER SERVICE NEW ORLEANS LA
600 PM CDT TUE SEP 30 2014

NOTE: "FAIR" INDICATES FEW OR NO CLOUDS BELOW 12,000 FEET WITH NO
      SIGNIFICANT WEATHER AND/OR OBSTRUCTIONS TO VISIBILITY.
      SKY/WX - SKY CONDITION AND SIGNIFICANT WEATHER.
      TMP - AIR TEMPERATURE.     DP    - DEWPOINT TEMPERATURE.
      RH  - RELATIVE HUMIDITY.   PRES  - PRESSURE.
      HI  - HEAT INDEX.          WCI   - WIND CHILL INDEX.

*  THESE STATIONS ARE NOT NWS OR FAA STATIONS AND ARE NOT UNDER
   NWS QUALITY CONTROL.

LAZ038-040-048-061>063-065>067-069-010000-
SOUTHEAST LOUISIANA

CITY           SKY/WX    TMP DP  RH WIND       PRES   REMARKS
N.O. AUDUBON     N/A     85  73  68 MISG        N/A
N.O. INTL ARPT PTCLDY    85  70  60 SE12      29.83S
N.O. LAKEFRONT CLEAR     83  70  64 E10       29.84S
N.O. DOWNTOWN*   N/A     84  70  61 S7        29.84S
SLIDELL        CLEAR     82  69  64 SE7       29.84R
BATON ROUGE    MOSUNNY   86  69  56 E7        29.82S
BOOTHVILLE     PTCLDY    80  74  81 E10       29.85F
BELLE CHASSE   PTCLDY    82  71  69 SE9       29.84S
BOGALUSA*      MOCLDY    86  68  53 E6        29.86R
GALLIANO*      NOT AVBL
NEW ROADS*       N/A     87  69  55 E5        29.82S
GONZALES*        N/A     87  71  59 NE3       29.82S
HAMMOND*       CLEAR     84  70  61 SE9       29.85R
HOUMA*         MOCLDY   N/A N/A N/A SE3       29.83S
PORT FOURCHON* PTCLDY    82  75  78 E7        29.87S

$$

MSZ070-080>082-010000-
SOUTHERN MISSISSIPPI

CITY           SKY/WX    TMP DP  RH WIND       PRES   REMARKS
MCCOMB         CLEAR     86  65  49 VRB3      29.84F
GULFPORT       PTCLDY    80  72  76 S7        29.85R
BILOXI         CLEAR     80  73  77 S7        29.85S
PASCAGOULA     CLEAR     81  69  67 NE5       29.85S
STENNIS ARPT*  PTCLDY    81  70  69 SE6       29.85S

$$

COASTAL OBSERVATIONS
LAKE AND NEARSHORE STATIONS

STATION/POSITION TIME  TEMP    WIND        PRES    WAVE
                       AIR SEA DIR/SP/G            HT/PER
                 (UTC) (F)     (DEG/KT/KT) (MB)    (FT/S)
PASCAGOULA       2300   82     140/  7/ 11 1010.4
WAVELAND YACHT   2300   78     150/  9/ 10 1010.2
GRAND ISLE       2300   82 82  110/  4/ 12 1011.1
SOUTHWEST PASS   2300   86 86   90/ 12/ 14 1010.7
NEW CANAL        2300   85 78   90/  1/  3 1010.7
SHELL BEACH      2300   80 76  100/  9/ 11 1010.6

OFFSHORE STATIONS

STATION/POSITION TIME  TEMP    WIND        PRES    WAVE
                       AIR SEA DIR/SP/G            HT/PER
                 (UTC) (F)     (DEG/KT/KT) (MB)    (FT/S)
64 S DAUPHIN ISL 2238   79 83   60/ 10/ 14 1011.3    2/ 5

$$




USA.gov is the U.S. government's official web portal to all federal, state and local government web resources and services.